Location: Buchdorf
(48.7842°N, 10.8275°E)
Time: 09:01:45
(UTC+00:00)

Daily predictions for brighter satellites

Satellite Brightness Start Highest point End
(mag) Time Altitude Azimuth Time Altitude Azimuth Time Altitude Azimuth
Cosmos 2251 Rocket 4.2 18:23:55 10° SW 18:29:16 64° WNW 18:34:38 10° NNE
STARLINK-1189 3.0 18:27:01 10° WNW 18:30:08 68° NNE 18:33:14 10° ESE
STARLINK-1198 3.0 18:27:29 10° WNW 18:30:36 68° NNE 18:33:43 10° ESE
STARLINK-1188 3.0 18:27:55 10° WNW 18:31:02 68° NNE 18:34:08 10° ESE
STARLINK-1143 4.2 18:27:15 10° WNW 18:31:20 53° NNE 18:35:24 10° E
Cosmos 1140 Rocket 4.1 18:26:48 10° SSE 18:31:21 32° ESE 18:35:55 10° NE
STARLINK-1235 2.9 18:28:35 10° WNW 18:31:43 81° NNE 18:34:53 10° ESE
STARLINK-1187 2.9 18:28:59 10° WNW 18:32:09 75° NNE 18:35:19 10° ESE
Cosmos 1943 Rocket 4.2 18:28:13 10° NW 18:32:57 29° WSW 18:37:42 10° SSW
STARLINK-1199 3.0 18:29:52 10° WNW 18:33:00 70° NNE 18:36:09 10° ESE
STARLINK-1191 3.0 18:30:18 10° WNW 18:33:27 71° NNE 18:36:36 10° ESE
Ariane Rocket 3.0 18:28:37 10° SSE 18:33:41 83° ENE 18:38:47 10° NNW
STARLINK-1210 3.0 18:30:46 10° WNW 18:33:55 71° NNE 18:37:03 10° ESE
STARLINK-1221 3.0 18:31:12 10° WNW 18:34:22 72° NNE 18:37:30 10° ESE
STARLINK-1219 3.0 18:31:41 10° WNW 18:34:49 72° NNE 18:37:58 10° ESE
STARLINK-1222 3.0 18:32:07 10° WNW 18:35:15 72° NNE 18:38:24 10° ESE
STARLINK-1211 3.0 18:32:35 10° WNW 18:35:43 73° NNE 18:38:52 10° ESE
STARLINK-1214 3.0 18:33:02 10° WNW 18:36:10 73° NNE 18:39:18 10° ESE
STARLINK-1241 4.1 18:32:16 10° WNW 18:36:22 54° NNE 18:40:26 10° E
STARLINK-1245 2.9 18:33:30 10° WNW 18:36:37 74° NNE 18:39:45 10° ESE
STARLINK-1238 2.9 18:33:55 10° WNW 18:37:04 74° NNE 18:40:13 10° ESE
ERBS 3.6 18:34:52 10° NW 18:37:58 32° NNE 18:41:02 10° E
STARLINK-1205 2.9 18:34:51 10° WNW 18:37:59 75° NNE 18:41:06 10° ESE
APEX 4.3 18:31:44 10° NNW 18:38:21 87° ENE 18:43:40 10° SSE
STARLINK-1204 2.9 18:35:18 10° WNW 18:38:26 75° NNE 18:41:33 10° ESE
Meteor 1-16 Rocket 4.2 18:33:22 10° S 18:38:47 76° E 18:44:25 10° NNE
Cosmos 614 Rocket 4.0 18:34:00 10° S 18:39:07 60° ESE 18:44:16 10° NNE
CZ-2C R/B 2.8 18:34:27 10° SSE 18:39:16 74° ENE 18:44:02 10° N
STARLINK-1239 4.1 18:37:15 10° WNW 18:41:21 56° NNE 18:45:26 10° E
ATLAS CENTAUR R/B 3.7 18:40:30 10° N 18:42:04 12° NNE 18:43:35 10° NE
MONITOR-E 3.7 18:40:02 10° SSE 18:42:39 66° ENE 18:45:17 10° N
STARLINK-29 3.6 18:40:28 10° SSW 18:43:26 36° SE 18:46:26 10° ENE
Cosmos 1190 Rocket 4.2 18:40:07 10° S 18:45:11 48° ESE 18:50:16 10° NNE
SJ-6B 3.0 18:41:42 10° SSE 18:45:47 64° ENE 18:49:53 10° N
Resurs 1-3 4.3 18:42:16 10° SE 18:46:16 36° ENE 18:50:18 10° N
Aureole 1 Rocket 4.1 18:39:06 10° S 18:46:19 64° ESE 18:51:56 10° NNE
STARLINK-1240 4.0 18:42:14 10° WNW 18:46:20 58° NNE 18:50:22 10° E
Cosmos 1300 4.0 18:44:34 10° SE 18:47:30 21° E 18:50:26 10° NE
BREEZE-M DEB (TANK) 3.8 18:40:46 10° WNW 18:48:06 72° SSW 18:50:46 12° ESE
Cosmos 2369 Rocket 4.2 18:45:25 10° NW 18:50:13 29° WSW 18:54:59 10° SSW
STARLINK-60 2.9 18:47:42 10° WSW 18:50:58 79° SSE 18:54:15 10° ENE
STARLINK-1216 4.0 18:47:13 10° WNW 18:51:19 60° NNE 18:55:08 12° E
SL-24 R/B 4.4 18:47:53 10° NNE 18:51:35 35° E 18:55:00 10° SSE
CZ-2C R/B 4.1 18:50:00 10° NNE 18:54:28 41° E 18:58:49 10° S
STARLINK-1237 3.9 18:52:10 10° WNW 18:56:18 62° NNE 18:59:54 13° E
Cosmos 2058 Rocket 3.2 18:55:25 10° S 18:59:50 56° E 19:04:14 10° NNE
STARLINK-1202 3.9 18:57:11 10° WNW 19:01:18 64° NNE 19:04:42 15° E
Cosmos 1726 Rocket 3.6 18:58:03 10° S 19:02:29 89° E 19:06:58 10° N
SL-08 RB Rocket 3.7 18:58:14 10° SSE 19:02:48 82° ENE 19:07:28 10° NNW
Cosmos 1461 3.5 18:58:43 10° NW 19:03:13 65° SW 19:07:50 10° SSE
STARLINK-1228 3.2 19:00:37 10° WNW 19:03:29 51° SSW 19:05:31 17° SE
Cosmos 921 Rocket 2.9 19:01:18 10° NNW 19:05:31 77° ENE 19:09:42 10° SSE
DMSP B5D2-2 4.4 19:00:38 10° NNE 19:05:37 42° E 19:10:34 10° S
Cosmos 1703 4.0 19:01:52 10° NNW 19:05:47 57° W 19:09:39 10° S
Cosmos 2341 Rocket 4.2 19:00:12 10° N 19:06:30 57° ENE 19:12:46 10° SSE
Cosmos 1726 3.8 19:03:45 10° SW 19:07:15 37° WNW 19:10:46 10° N
SL-4 R/B 1.7 19:04:04 10° WSW 19:07:28 71° NNW 19:10:55 10° ENE
CZ-4C R/B 4.0 19:03:56 10° NW 19:09:41 30° NNE 19:16:17 10° E
Cosmos 407 Rocket 3.4 19:05:36 10° SSW 19:10:44 89° ESE 19:15:55 10° NNE
Cosmos 1908 3.5 19:07:04 10° SSW 19:10:55 70° W 19:14:49 10° N
STARLINK-1246 3.7 19:07:07 10° WNW 19:11:16 70° NNE 19:14:15 18° ESE
Cosmos 1340 Rocket 2.7 19:07:20 10° S 19:11:22 76° E 19:15:24 10° NNE
FREGAT/IRIS 4.0 19:09:09 10° SSW 19:11:41 34° W 19:14:13 10° NNW
RESURS DK-1 4.2 19:09:03 10° N 19:12:06 19° NE 19:14:21 13° E
STARLINK-1201 3.1 19:09:20 10° WNW 19:12:35 69° SSW 19:14:33 22° SE
Cosmos 2228 3.6 19:09:09 10° SSW 19:13:24 60° WNW 19:17:45 10° N
Cosmos 676 Rocket 4.1 19:09:17 10° S 19:14:23 52° ESE 19:19:28 10° NNE
STARLINK-1224 3.7 19:12:08 10° WNW 19:16:17 73° NNE 19:19:04 20° ESE
Cosmos 2218 Rocket 4.4 19:11:43 10° N 19:17:38 43° ENE 19:22:16 16° SE
STARLINK-1203 3.7 19:14:16 10° WNW 19:18:29 79° NNE 19:21:13 21° ESE
Cosmos 2058 3.8 19:15:42 10° N 19:19:23 30° ENE 19:21:10 21° ESE
Cosmos 220 Rocket 4.4 19:15:21 10° NNW 19:19:34 47° ENE 19:22:11 21° SE
MetOp-A 4.1 19:14:22 10° SSE 19:19:43 85° ENE 19:25:07 10° NNW
Resurs 01 Rocket 1.8 19:17:44 16° SE 19:21:07 55° ENE 19:25:26 10° N
STARLINK-1225 3.6 19:17:07 10° WNW 19:21:17 77° NNE 19:23:51 22° ESE
MOS 1 Rocket 3.7 19:16:54 10° NNE 19:22:14 56° E 19:27:34 10° S
CZ-2C R/B 2.7 19:18:30 10° NNE 19:23:33 51° E 19:28:37 10° S
STARLINK-52 2.8 19:20:34 10° SW 19:23:45 66° SSE 19:25:57 18° ENE
Nadezhda 1 Rocket 4.3 19:19:22 10° SSW 19:25:45 74° W 19:32:07 10° N
STARLINK-1230 3.6 19:22:05 10° WNW 19:26:15 80° NNE 19:28:37 25° ESE
BREEZE M DEB (TANK) 3.4 19:23:21 10° SSW 19:26:28 37° SE 19:34:19 10° ENE
Cosmos 1812 Rocket 4.3 19:25:20 21° SE 19:27:22 32° E 19:31:14 10° NNE
Cosmos 962 Rocket 4.4 19:21:13 10° N 19:27:25 84° E 19:33:32 10° S
SPOT 3 Rocket 3.7 19:23:37 10° S 19:28:49 77° WSW 19:34:03 10° NNW
Cosmos 1697 Rocket 4.0 19:24:48 10° NNW 19:29:38 28° NE 19:32:44 17° E
SL-8 Rocket 4.1 19:23:45 10° N 19:30:02 62° ENE 19:35:13 16° SSE
ARGOS 4.1 19:25:15 10° S 19:30:25 47° W 19:35:37 10° NNW
STARLINK-1243 3.6 19:27:03 10° WNW 19:31:13 84° NNE 19:33:24 27° ESE
FALCON 9 DEB 3.0 19:28:36 10° WSW 19:32:05 77° SSE 19:34:33 18° ENE
Iridium 2 4.0 19:33:27 26° SE 19:35:08 44° E 19:38:47 10° NNE
Cosmos 1954 Rocket 3.9 19:30:44 10° SSW 19:35:57 75° ESE 19:41:11 10° NNE
Cosmos 2181 Rocket 4.0 19:29:55 10° S 19:35:59 57° E 19:42:01 10° NNE
USA 186 4.3 19:33:29 10° SSW 19:36:02 21° W 19:38:29 10° NW
STARLINK-1236 3.5 19:32:02 10° WNW 19:36:13 88° NNE 19:38:11 30° ESE
MINOTAUR IV R/B 4.5 19:32:47 10° SSW 19:37:15 81° ESE 19:41:46 10° NNE
Cosmos 2366 rocket 4.0 19:38:04 10° N 19:44:11 62° ENE 19:48:11 22° SSE
Cosmos 1076 Rocket 3.6 19:40:21 10° N 19:44:35 56° ENE 19:46:19 32° SE
STARLINK-1269 3.5 19:42:00 10° WNW 19:46:09 83° SSW 19:47:44 37° ESE
Landsat 7 4.4 19:46:17 29° ESE 19:48:01 41° ENE 19:52:29 10° N
Cosmos 1959 Rocket 4.5 19:42:07 10° N 19:48:25 69° ENE 19:52:35 22° SSE
Cosmos 1656 4.0 19:43:09 10° NNW 19:48:44 54° NE 19:51:23 29° ESE
Cosmos 1763 Rocket 3.7 19:44:09 10° NNW 19:49:17 56° ENE 19:51:29 31° SE
SL-16 R/B 4.5 19:48:04 10° N 19:50:18 12° NNE 19:52:31 10° NE
STARLINK-1200 3.6 19:46:59 10° WNW 19:51:08 78° SSW 19:52:31 40° SE
SPOT 1/Viking Rocket 4.1 19:50:06 29° ESE 19:52:08 42° ENE 19:57:03 10° N
GRACE-FO 1 4.5 19:50:51 29° S 19:52:37 83° E 19:56:21 10° N
Cosmos 540 Rocket 4.4 19:48:08 10° N 19:52:48 33° NE 19:54:31 26° E
GRACE-FO 2 4.5 19:51:14 29° S 19:53:01 84° E 19:56:44 10° N
Cosmos 1455 3.6 19:56:32 23° ENE 19:56:32 23° ENE 19:58:50 10° NNE
STARLINK-1192 3.6 19:51:57 10° WNW 19:56:06 74° SSW 19:57:18 44° SE
STARLINK-1233 4.2 19:53:32 10° W 19:56:19 28° SW 19:56:38 28° SSW
STARLINK-1212 4.2 19:54:01 10° W 19:56:47 28° SW 19:57:04 28° SSW
STARLINK-1105 4.2 19:54:28 10° W 19:57:13 28° SW 19:57:31 27° SSW
STARLINK-1206 4.3 19:54:56 10° W 19:57:40 27° SW 19:57:55 27° SSW
Iridium 4 Rocket 3.0 19:53:53 10° N 19:58:02 58° E 19:59:06 43° SE
STARLINK-1247 4.3 19:55:24 10° W 19:58:07 27° SW 19:58:22 27° SSW
STARLINK-1227 4.3 19:55:49 10° W 19:58:32 27° SW 19:58:47 27° SSW
STARLINK-1218 4.3 19:56:19 10° W 19:59:01 27° SW 19:59:13 27° SSW
USA 234 3.7 19:53:12 10° ENE 19:59:11 37° SE 20:05:08 10° SSW
STARLINK-1226 4.3 19:56:45 10° W 19:59:28 27° SW 19:59:40 27° SSW
Cosmos 1980 Rocket 3.5 19:55:04 10° NNW 19:59:47 26° NE 20:02:02 21° E
STARLINK-1254 4.3 19:57:11 10° W 19:59:54 27° SW 20:00:06 26° SSW
STARLINK-1215 4.3 19:57:41 10° W 20:00:22 26° SW 20:00:32 26° SSW
Cosmos 1174 4.1 19:56:33 10° NW 20:00:42 83° SW 20:02:39 37° SSE
STARLINK-1231 4.4 19:58:08 10° W 20:00:49 26° SW 20:00:58 26° SSW
STARLINK-1244 3.6 19:57:02 10° WNW 20:01:10 69° SSW 20:02:10 48° SE
Cosmos 1892 2.7 19:57:35 10° N 20:01:29 65° E 20:02:12 52° SE
STARLINK-1232 4.4 19:59:03 10° W 20:01:43 26° SW 20:01:50 26° SW
STARLINK-1217 4.4 19:59:30 10° W 20:02:10 25° SW 20:02:16 25° SW
Abrixas rocket 3.8 20:00:05 10° W 20:02:07 22° SW 20:02:07 22° SW
STARLINK-1208 4.4 19:59:55 10° W 20:02:36 26° SW 20:02:43 25° SW
STARLINK-1229 4.4 20:00:24 10° W 20:03:03 25° SW 20:03:07 25° SW
STARLINK-1271 4.5 20:00:52 10° W 20:03:30 25° SW 20:03:34 25° SW
STARLINK-1270 4.5 20:01:19 10° W 20:03:57 25° SW 20:04:00 25° SW
H-2A R/B 4.4 20:00:28 10° SW 20:04:15 20° W 20:07:59 10° NW
STARLINK-1154 4.5 20:01:47 10° W 20:04:24 24° SW 20:04:26 24° SW
ATLAS 5 CENTAUR R/B 2.7 20:01:47 10° WSW 20:05:53 45° NW 20:10:35 10° NE
Cosmos 1825 3.3 20:02:39 10° N 20:05:39 29° ENE 20:05:39 29° ENE
STARLINK-1138 3.7 20:01:56 10° WNW 20:06:03 65° SSW 20:06:52 51° SSE
ATLAS 2AS CENTAUR R/B 4.4 20:00:19 10° NW 20:06:23 28° WSW 20:12:04 10° SSW
Cosmos-2242 3.7 20:08:42 35° ENE 20:08:42 35° ENE 20:12:18 10° NNE
COSMOS 2455 3.9 20:04:12 10° NW 20:09:45 39° WSW 20:13:57 16° S
STARLINK-1143 3.7 20:06:55 10° WNW 20:11:01 61° SSW 20:11:39 53° S
Cosmos 1356 Rocket 3.8 20:13:46 44° E 20:13:46 44° E 20:17:31 10° NNE
Cosmos 489 Rocket 4.5 20:07:53 10° NNW 20:14:05 66° ENE 20:16:28 38° SE
ERBS 2.7 20:11:07 10° WNW 20:14:20 53° SW 20:14:20 53° SW
STARLINK-1241 3.8 20:11:57 10° WNW 20:16:01 56° SSW 20:16:28 53° S
STARLINK-29 3.6 20:16:23 10° W 20:19:32 53° NNW 20:19:45 52° N
SAR-Lupe-2 3.7 20:16:56 10° N 20:20:32 74° WNW 20:21:14 53° SW
IGS 5A 3.3 20:20:27 65° SE 20:20:58 77° ENE 20:25:08 10° N
STARLINK-1239 3.9 20:16:55 10° WNW 20:20:58 53° SW 20:21:14 51° SSW
ATLAS CENTAUR R/B 1.9 20:18:22 10° NNW 20:22:04 39° NE 20:22:10 39° NE
Cosmos 1300 4.4 20:19:31 10° SW 20:22:58 32° WNW 20:26:28 10° N
Spot 2 Rocket 3.6 20:22:15 37° S 20:24:20 75° WSW 20:29:28 10° NNW
Cosmos 1821 Rocket 4.2 20:18:34 10° N 20:24:51 54° ENE 20:26:40 42° SE
USA 32 4.0 20:20:00 10° N 20:25:14 67° E 20:26:23 51° SE
STARLINK-1240 4.0 20:21:55 10° WNW 20:25:55 49° SW 20:26:01 49° SSW
STARLINK-60 4.1 20:24:23 10° W 20:27:31 40° N 20:27:48 39° N
Cosmos 1850 Rocket 3.8 20:24:21 21° SSW 20:27:53 84° ESE 20:33:07 10° NNE
Cosmos 841 Rocket 3.5 20:23:13 10° NNW 20:28:30 66° ENE 20:29:32 53° ESE
Terra 2.4 20:29:53 41° ENE 20:30:07 41° ENE 20:34:37 10° N
STARLINK-1216 4.2 20:26:54 10° WNW 20:30:47 45° SW 20:30:47 45° SW
Mayak 1.2 20:28:16 10° NE 20:28:23 10° NE 20:28:23 10° NE
Cosmos 2278 4.2 20:25:46 10° NNW 20:31:15 47° NE 20:32:29 41° E
SPOT 5 2.8 20:31:40 54° ENE 20:31:40 54° ENE 20:35:54 10° N
Cosmos 2082 Rocket 3.6 20:34:09 22° ENE 20:34:09 22° ENE 20:36:49 10° NE
SL-08 R/B 4.4 20:28:01 10° N 20:34:11 85° W 20:36:44 38° S
Meteor 2-10 Rocket 3.5 20:33:52 56° SE 20:34:43 65° E 20:40:07 10° NNE
STARLINK-1237 4.3 20:31:52 10° WNW 20:35:33 42° SW 20:35:33 42° SW
Cosmos 1833 Rocket 3.0 20:39:02 46° E 20:39:02 46° E 20:43:53 10° NE
CARTOSAT-1 3.5 20:39:31 69° ENE 20:39:31 69° ENE 20:43:46 10° N
SL-4 R/B 2.7 20:43:54 10° WNW 20:46:33 43° NW 20:46:33 43° NW
Cosmos 1408 3.2 20:43:48 10° NNW 20:46:55 55° NW 20:46:55 55° NW
ERS-1 Rocket 2.8 20:47:01 68° S 20:47:41 88° WSW 20:52:44 10° NNW
RESURS DK-1 2.7 20:46:26 10° NW 20:50:15 61° W 20:50:15 61° W
Cosmos 1766 Rocket 3.6 20:48:34 10° N 20:52:50 80° N 20:52:50 80° N
Cosmos 1570 Rocket 4.2 20:48:21 10° NNW 20:53:41 67° WSW 20:54:32 57° SSW
BREEZE M DEB (TANK) 3.4 20:48:50 10° W 20:53:25 50° W 20:53:25 50° W
Okean 3 Rocket 3.6 20:50:10 10° NNW 20:54:33 75° W 20:54:33 75° W
Resurs 01 Rocket 4.0 20:55:17 11° SW 20:57:57 18° W 21:01:00 10° NW
COSMOS 2406 3.2 20:54:52 25° SW 20:58:20 80° WNW 21:04:06 10° NNE
CZ-4C R/B 3.0 20:52:23 10° NW 20:59:24 72° NE 21:01:49 47° ESE
Cosmos 2151 3.7 21:03:43 10° NNW 21:07:34 47° W 21:07:34 47° W
Cosmos 1697 Rocket 2.8 21:08:26 10° NNW 21:14:05 66° WSW 21:14:29 63° SW
Cosmos 2369 3.7 21:08:34 10° NNW 21:14:12 67° WSW 21:14:33 65° SW
Cosmos 1455 4.2 21:31:25 26° WNW 21:31:25 26° WNW 21:34:28 10° NNW
Cosmos 1408 Rocket 4.5 21:27:56 10° NNW 21:31:22 47° NW 21:31:22 47° NW
Cosmos 540 Rocket 4.3 21:29:40 10° NW 21:34:21 41° W 21:34:21 41° W
SL-16 R/B 3.0 21:30:45 10° NNW 21:36:06 40° NE 21:36:11 40° NE
Cosmos 2360 Rocket 3.9 21:32:02 10° N 21:36:27 23° NE 21:37:32 21° ENE
Thor Agena Rocket 4.5 21:33:02 10° NNE 21:36:20 38° NE 21:36:20 38° NE
Cosmos 1825 4.5 21:38:23 10° NW 21:40:28 21° WNW 21:40:28 21° WNW
USA 234 3.2 21:36:02 10° NE 21:42:36 83° NNW 21:49:09 10° WSW
Cosmos 2322 Rocket 3.1 21:37:47 10° NNW 21:43:04 38° NE 21:43:04 38° NE
Cosmos 1980 Rocket 2.4 21:38:42 10° NNW 21:43:48 65° W 21:43:48 65° W
Cosmos 2221 4.1 21:46:37 31° NNE 21:46:37 31° NNE 21:48:56 10° NNE
ASTEX 1 4.0 21:50:00 53° NW 21:50:00 53° NW 21:54:07 10° NNW
ATLAS 5 CENTAUR R/B 4.5 21:48:35 10° WNW 21:51:49 18° NNW 21:55:21 10° NNE
Meteor 2-3 Rocket 4.3 21:49:56 10° NNW 21:55:21 50° W 21:55:21 50° W
Cosmos 2333 Rocket 4.4 21:54:33 10° N 21:58:05 16° NE 22:00:26 13° ENE
ATLAS CENTAUR R/B 4.0 21:57:39 10° WNW 21:58:21 14° WNW 21:58:21 14° WNW
Cosmos 1727 Rocket 4.2 22:05:51 60° NE 22:05:51 60° NE 22:11:18 10° NNE
Mayak 0.6 22:02:46 10° N 22:04:58 29° N 22:04:58 29° N
Terra 3.5 22:08:45 26° WNW 22:08:45 26° WNW 22:12:05 10° NW
Cosmos 2082 Rocket 2.7 22:15:56 55° NW 22:15:56 55° NW 22:21:26 10° NNE
Cosmos 2100 Rocket 4.2 22:15:09 10° N 22:20:40 62° NE 22:20:40 62° NE
Cosmos 1833 Rocket 4.0 22:20:38 27° W 22:22:35 35° NW 22:27:44 10° NNE
Cosmos 968 Rocket 4.5 22:25:40 43° NNE 22:25:40 43° NNE 22:29:11 10° NNE
Cosmos 2173 Rocket 4.2 22:21:01 10° N 22:26:16 60° NNE 22:26:16 60° NNE
Cosmos 2219 Rocket 4.0 22:29:11 10° N 22:33:34 23° NE 22:34:42 21° ENE
ALOS 2 4.4 22:36:50 29° N 22:36:50 29° N 22:39:03 10° NNW
Cosmos 2344 4.5 22:26:38 10° NW 22:36:13 64° WSW 22:38:34 55° SSW
CZ-4C R/B 3.8 22:41:15 10° NW 22:46:59 36° WSW 22:46:59 36° WSW
COSMOS 2428 4.0 22:58:09 10° NNW 23:03:14 32° NE 23:03:37 31° NE
Cosmos 839 Rocket 4.5 23:14:56 57° NE 23:14:56 57° NE 23:20:27 10° NE
SL-16 R/B 3.7 23:14:57 10° NW 23:18:02 29° WNW 23:18:02 29° WNW
Cosmos 2360 Rocket 3.1 23:15:30 10° NNW 23:19:17 44° NNW 23:19:17 44° NNW
USA 234 4.1 23:19:04 10° ENE 23:25:16 47° N 23:31:28 10° W
Cosmos 2322 Rocket 3.7 23:21:53 10° NW 23:24:52 28° WNW 23:24:52 28° WNW
MOS 1-B Rocket 4.3 23:34:21 10° N 23:40:21 70° NW 23:40:21 70° NW
Cosmos 2333 Rocket 2.9 23:37:55 10° NNW 23:42:26 51° N 23:42:26 51° N
Cosmos 2237 Rocket 3.9 23:39:33 10° NNW 23:44:25 28° NE 23:46:25 23° ENE
Cosmos 2233 Rocket 4.2 23:42:34 10° N 23:47:50 64° NNW 23:47:50 64° NNW
SL-16 R/B 3.7 23:48:42 33° E 23:50:02 36° ENE 23:55:38 10° N
